Regional Weather Roundup
Issued by NWS Memphis, TN

Home | Current Version | Previous Version | Text Only | Print | Product List | Glossary On
Versions: 1 2 3 4 5 6 7 8 9 10 11 12 13 14 15 16 17 18 19 20 21 22 23 24 25 26 27 28 29 30 31 32 33 34 35 36 37 38 39 40 41 42 43 44 45 46 47 48 49 50
000
ASUS44 KMEG 221510
RWRMEG
MEMPHIS CWA HOURLY WEATHER ROUNDUP
NATIONAL WEATHER SERVICE MEMPHIS TN
1000 AM CDT THU OCT 22 2020

...WEST TENNESSEE...

CITY           SKY/WX    TMP DP  RH WIND       PRES   REMARKS
MEMPHIS INTL   MOSUNNY   75  67  76 S10       30.13R
NWS MEMPHIS      N/A     73 N/A N/A MISG        N/A
JACKSON        SUNNY     74  66  76 S7        30.15S
COVINGTON      SUNNY     73  68  83 S10       30.13S
SOMERVILLE     SUNNY     75  68  78 VRB6G14   30.13R
BOLIVAR        SUNNY     73  68  83 SE9       30.14S
LEXINGTON      SUNNY     73  66  78 S7        30.16S
SELMER         SUNNY     73  66  78 SE9       30.15F
DYERSBURG      SUNNY     73  68  84 S5        30.15R
UNION CITY     SUNNY     75  68  78 S12       30.13S
PARIS          SUNNY     75  68  78 S9        30.15S
HUNTINGDON     PTSUNNY   73  66  78 S8        30.15F


...EASTERN ARKANSAS...

CITY           SKY/WX    TMP DP  RH WIND       PRES   REMARKS
JONESBORO      SUNNY     72  66  81 S9        30.11S
WEST MEMPHIS   SUNNY     76  67  73 S13       30.11S
BATESVILLE     SUNNY     75  67  76 S7        30.10R
NEWPORT        MOSUNNY   73  66  78 S12       30.10S
WALNUT RIDGE   SUNNY     73  67  81 S10       30.10S
BLYTHEVILLE    SUNNY     78  66  66 S13       30.12S
SEARCY         MOSUNNY   70  69  97 SE5       30.10S
STUTTGART      SUNNY     74  68  81 S9        30.10R
PINE BLUFF     SUNNY     73  66  78 E7        30.09R
MONTICELLO     SUNNY     73  67  81 SE6       30.09R


...NORTH MISSISSIPPI...

CITY           SKY/WX    TMP DP  RH WIND       PRES   REMARKS
TUPELO         MOSUNNY   76  67  73 SE12      30.15R
OXFORD         SUNNY     72  66  83 VRB6      30.15S
BATESVILLE     SUNNY     75  68  78 S7        30.12S
OLIVE BRANCH   SUNNY     75  70  83 S10       30.13R
TUNICA         SUNNY     73  68  83 SE9G16    30.12S
CLARKSDALE       N/A     75  72  88 SE9       30.11S
CORINTH        SUNNY     75  66  73 SE6       30.15S
GREENWOOD      SUNNY     77  69  76 SE6       30.10S
COLUMBUS       MOSUNNY   77  68  72 SE12      30.14S
STARKVILLE     SUNNY     73  68  83 SE7       30.14F
GOLDEN TRIANGL SUNNY     76  70  82 SE8       30.14S


...SOUTHEAST MISSOURI...

CITY           SKY/WX    TMP DP  RH WIND       PRES   REMARKS
KENNETT        SUNNY     75  70  83 S9G15     30.11S
MALDEN         SUNNY     73  66  78 S13       30.12F
WEST PLAINS    SUNNY     71  64  78 S9        30.10S
POPLAR BLUFF   SUNNY     71  65  81 S5        30.10S
CAPE GIRARDEAU SUNNY     74  65  73 S9        30.11S


...NORTHWEST ALABAMA...

CITY           SKY/WX    TMP DP  RH WIND       PRES   REMARKS
MUSCLE SHOALS  SUNNY     74  66  76 E8        30.18S


...MIDDLE TENNESSEE...

CITY           SKY/WX    TMP DP  RH WIND       PRES   REMARKS
NASHVILLE      MOSUNNY   75  64  68 S6        30.21S
CLARKSVILLE    SUNNY     72  66  81 S7        30.18S
DICKSON        SUNNY     75  64  69 S9        30.18S
COLUMBIA       PTSUNNY   73  68  83 S7G15     30.18R
LEWISBURG      MOSUNNY   77  64  65 SE12G18   30.19S


...WESTERN KENTUCKY...

CITY           SKY/WX    TMP DP  RH WIND       PRES   REMARKS
PADUCAH        SUNNY     74  65  73 S6        30.13S
FORT CAMPBELL  SUNNY     75  67  76 S6        30.17S


...CENTRAL ARKANSAS...

CITY           SKY/WX    TMP DP  RH WIND       PRES   REMARKS
LITTLE ROCK    MOSUNNY   73  67  81 VRB6      30.09R


SKY/WX REPORTED AS FAIR MEANS FEW OR NO CLOUDS BELOW
12 THOUSAND FEET.




USA.gov is the U.S. government's official web portal to all federal, state and local government web resources and services.